ES'HAIL 1 (39233 NORAD) Tracking and Keplerian Element Data

This shows tracking and keplerian element data for the satellite.

Feedback or suggestion? Click here.




ElementValue
Catalog39233
NameES'HAIL 1
Epoch Orbit2926
Epoch Day261.87324913
Epoch Year2021
RAAN37.7504
Inclination0.026
Eccentricity0.0001956
Argument of Perigee133.9845
Mean Anonmoly166.1085
Mean Motion1.00269783
Decay Rate1.19E-06
L11 39233U 13044A 21261.87324913 .00000119 00000-0 00000-0 0 9992
L22 39233 0.0260 37.7504 0001956 133.9845 166.1085 1.00269783 29262

Live tracking and technical data element details for ES'HAIL 1 (NORAD 39233). ES'HAIL 1 can be tracked NOW for your location showing map with azimuth and elevation plus other details from your city location.

Track the satellite on the map from your city or location and see movement details for azimuth, elevation, latitude, longitude, range, height, and movement on the map or in text.







IsCatalogInMostPopularTable: catalog: 39233, numindb: 1463
Update: records affected: 1



GetName: 39233 ES'HAIL 1

Hit Count: updated at: Fri, 24 Sep 2021 17:45:09 GMT